Location: Wavehorne
(51.0500°N, 0.8333°E)
Time: 20:09:50
(UTC+00:00)

SJ 16-02 - Pass Details

Date: 20 June 2021
Orbit: 606 x 616 km, 75.0° (Epoch: 02 August)

Event Time Altitude Azimuth Distance (km) Brightness Sun altitude
Rises 00:32:02 0° 329° (NNW) 2,877 5.6 -15.1°
Reaches altitude 10° 00:34:28 10° 320° (NW) 1,967 4.5 -15.1°
Maximum altitude 00:38:19 31° 258° (WSW) 1,076 2.4 -15.0°
Enters shadow 00:40:07 23° 217° (SW) 1,317 2.5 -14.9°
